Frenchville, ME

9:32 PM EDT on April 19, 2018 (GMT -0400)
Northern Aroostook Regional

Weather History for KFVE - January, 2013

Change the Weather History Date:

Tuesday, January 15, 2013

  Actual Average Record
Temperature  
Mean Temperature 14 °F 8 °F  
Max Temperature 19 °F 17 °F 36 °F (2014)
Min Temperature 9 °F 0 °F -24 °F (2004)
Degree Days  
Heating Degree Days 51    
Month to date heating degree days 759  
Since 1 July heating degree days 4170  
Cooling Degree Days 0    
Month to date cooling degree days 0  
Year to date cooling degree days 0  
Moisture  
Dew Point 3 °F    
Average Humidity 60    
Maximum Humidity 70    
Minimum Humidity 54    
Precipitation  
Precipitation 0.00 in 0.02 in 0.15 in (2007)
Month to date precipitation 0.05 1.30  
Year to date precipitation 0.05 1.30  
Sea Level Pressure  
Sea Level Pressure 30.22 in    
Wind  
Wind Speed 8 mph (WNW)    
Max Wind Speed 16 mph    
Max Gust Speed 23 mph    
Visibility 10 miles    
Events      
T = Trace of Precipitation, MM = Missing Value Source: NWS Daily Summary

Daily Weather History Graph

Daily Weather History Graph

Search for Another Location

Airport or City:

Astronomy

Jan. 15, 2013 Rise Set
Actual Time 7:15 AM EST 4:10 PM EST
Civil Twilight 6:41 AM EST 4:44 PM EST
Nautical Twilight 6:02 AM EST 5:22 PM EST
Astronomical Twilight 5:26 AM EST 5:59 PM EST
Moon 8:58 AM EST (1/15) 9:19 PM EST (1/15)
Length of Visible Light 10h 03m
Length of Day
8h 55m
Waxing Crescent, 19% of the Moon is Illuminated
Jan 15
Waxing Crescent
Jan 18
First Quarter
Jan 26
Full
Feb 3
Last Quarter
Feb 10
New

Hourly Weather History & Observations

Time (EST) Temp. Windchill Dew Point Humidity Pressure Visibility Wind Dir Wind Speed Gust Speed Precip Events Conditions
12:53 AM 18.0 °F 4.2 °F 3.9 °F 54% 30.19 in 10.0 mi NW 13.8 mph 20.7 mph N/A   Clear
1:53 AM 17.1 °F 5.8 °F 3.0 °F 54% 30.20 in 10.0 mi NNW 9.2 mph - N/A   Clear
2:53 AM 16.0 °F 3.6 °F 1.9 °F 54% 30.23 in 10.0 mi NNW 10.4 mph 19.6 mph N/A   Clear
3:53 AM 14.0 °F 6.5 °F 3.0 °F 62% 30.22 in 10.0 mi NNW 4.6 mph - N/A   Clear
4:53 AM 12.0 °F -0.4 °F 1.9 °F 64% 30.21 in 10.0 mi NNW 9.2 mph - N/A   Clear
5:53 AM 10.0 °F -2.9 °F 1.9 °F 70% 30.21 in 10.0 mi NW 9.2 mph - N/A   Clear
6:53 AM 10.0 °F -3.7 °F 1.0 °F 67% 30.22 in 10.0 mi NW 10.4 mph - N/A   Clear
7:53 AM 10.0 °F -5.2 °F 1.0 °F 67% 30.25 in 10.0 mi NW 12.7 mph - N/A   Clear
8:53 AM 10.9 °F -4.7 °F 1.9 °F 67% 30.26 in 10.0 mi NNW 13.8 mph - N/A   Clear
9:53 AM 12.9 °F 2.6 °F 3.0 °F 65% 30.27 in 10.0 mi NNW 6.9 mph - N/A   Clear
10:53 AM 15.1 °F 6.4 °F 3.9 °F 61% 30.25 in 10.0 mi West 5.8 mph - N/A   Clear
11:53 AM 16.0 °F 3.6 °F 3.9 °F 59% 30.23 in 10.0 mi NW 10.4 mph - N/A   Clear
12:53 PM 17.1 °F 7.6 °F 3.9 °F 56% 30.22 in 10.0 mi NW 6.9 mph - N/A   Clear
1:53 PM 18.0 °F 7.7 °F 6.1 °F 60% 30.21 in 10.0 mi West 8.1 mph - N/A   Clear
2:53 PM 19.0 °F 10.0 °F 5.0 °F 54% 30.22 in 10.0 mi WNW 6.9 mph - N/A   Mostly Cloudy
3:53 PM 17.1 °F 7.6 °F 3.9 °F 56% 30.23 in 10.0 mi West 6.9 mph - N/A   Clear
4:53 PM 17.1 °F 11.7 °F 3.9 °F 56% 30.22 in 10.0 mi WNW 3.5 mph - N/A   Clear
5:53 PM 15.1 °F 5.2 °F 1.9 °F 56% 30.22 in 10.0 mi West 6.9 mph - N/A   Clear
6:53 PM 16.0 °F 7.4 °F 1.9 °F 54% 30.21 in 10.0 mi WSW 5.8 mph - N/A   Clear
7:53 PM 14.0 °F 3.9 °F 1.0 °F 56% 30.21 in 10.0 mi WSW 6.9 mph - N/A   Clear
8:53 PM 12.0 °F 1.5 °F 1.0 °F 61% 30.20 in 10.0 mi SW 6.9 mph - N/A   Clear
9:53 PM 12.9 °F 1.6 °F 1.9 °F 62% 30.19 in 10.0 mi SW 8.1 mph - N/A   Mostly Cloudy
10:53 PM 12.0 °F -0.4 °F 1.9 °F 64% 30.18 in 10.0 mi SW 9.2 mph - N/A   Mostly Cloudy
11:53 PM 14.0 °F 5.1 °F 3.0 °F 62% 30.16 in 10.0 mi WSW 5.8 mph - N/A   Overcast